Home   Weather   Uster   Past weeks

Flag for Switzerland Past Weather in Uster, Zurich, Switzerland — Yesterday and Last 2 Weeks

Now
73 °F

Mild.


Feels Like: 76 °F
Forecast: 62 / 83 °F
Wind: 2 mph from West

Location: Zuerich-Fluntern

Current Time: Jul 29, 2017 at 2:09:06 pm

Latest Report: Jul 29, 2017 at 1:00 pm


Visibility: N/A

Pressure: 30.02 "Hg

Humidity: 63%

Dew Point: 60 °F

Location of UsterLocation

Past Weather in Uster — Graph

°F

Uster Temperature Yesterday

Maximum temperature yesterday: 69 °F (at 4:00 pm)
Minimum temperature yesterday: 58 °F (at 9:00 am)
Average temperature yesterday: 63 °F

High & Low Weather Summary for the Past Weeks

 TemperatureHumidityPressure
High87 °F (Jul 19, 4:00 pm)97% (Jul 21, 11:00 pm)30.29 "Hg (Jul 21, 11:00 pm)
Low53 °F (Jul 16, 4:00 am)32% (Jul 19, 5:00 pm)29.77 "Hg (Jul 21, 5:00 pm)
Average65 °F73%29.99 "Hg
* Reported Jul 14 12:00 pm — Jul 29 12:00 pm, Uster. Weather by CustomWeather, © 2017

Note: Actual official high and low records may vary slightly from our data, if they occured in-between our weather recording intervals... More about our weather records

Advertising

Uster Weather History for the Previous 24 Hours

Scroll right to see more
 ConditionsComfort  
Time TempWeatherWind HumidityBarometerVisibility
12:00 pm
Sat, Jul 29
72 °FMild.1 mph63%30.03 "HgN/A
11:00 am69 °FMild.2 mph69%30.05 "HgN/A
10:00 am66 °FMild.1 mph78%30.07 "HgN/A
9:00 am63 °FMild.No wind86%30.08 "HgN/A
8:00 am60 °FCool.2 mph94%30.07 "HgN/A
7:00 am59 °FCool.1 mph94%30.07 "HgN/A
6:00 am58 °FCool.2 mph95%30.07 "HgN/A
5:00 am59 °FCool.2 mph94%30.06 "HgN/A
4:00 am59 °FCool.1 mph94%30.06 "HgN/A
3:00 am59 °FCool.No wind93%30.06 "HgN/A
2:00 am60 °FCool.1 mph92%30.07 "HgN/A
1:00 am61 °FCool.No wind90%30.06 "HgN/A
12:00 am62 °FCool.No wind87%30.06 "HgN/A
11:00 pm
Fri, Jul 28
62 °FCool.1 mph86%30.05 "HgN/A
10:00 pm61 °FCool.1 mph87%30.05 "HgN/A
9:00 pm63 °FMild.2 mph83%30.02 "HgN/A
8:00 pm66 °FMild.3 mph69%30.01 "HgN/A
7:00 pm67 °FMild.6 mph68%30.00 "HgN/A
6:00 pm68 °FMild.5 mph64%30.01 "HgN/A
5:00 pm69 °FMild.7 mph70%30.01 "HgN/A
4:00 pm69 °FMild.8 mph70%30.01 "HgN/A
3:00 pm64 °FMild.3 mph74%30.03 "HgN/A
2:00 pm61 °FCool.2 mph85%30.05 "HgN/A
Weather by CustomWeather, © 2017

See weather overviewHow to use our weather pages